STARLINK-31823, 59794

Orbit data source: Space-Track

STARLINK-31823, 59794 is a payload satellite owned by SpaceX/Seattle (US) in LEO that was launched on Sat, 18 May 2024 UTC via an FALCON 9 launch vehicle from the Air Force Eastern Test Range (AFETR). Payload-class satellites include a variety of spacecraft equipped with specific instruments for various scientific and technological missions. These include communications satellites like Starlink; space stations such as the ISS; scientific satellites like the Hubble; Earth observation satellites from companies like Planet Labs, Umbra, and HawkEye 360; GPS; miniature CubeSats for education and research; and military/defense satellites.

Loading next visibility...
Identifier
59794, 2024-093N
Orbit
LEO
Last TLE update
1 day ago
Origin
Manufacturer
SpaceX/Seattle
Mission
Operational spacecraft
Bus & Motor
STARLINK V2M, Unknown motor
Mass
730 kg wet, ~700 kg dry
Launch date (UTC)
2024-05-18 (1 year ago)
Launch vehicle
FALCON 9
Launch site
Air Force Eastern Test Range (AFETR)
Object type
Payload
Rocket body
Debris
Shape & HBR
Unknown
Radar Cross Section
Large (>1 m²)

Expand to show TLE details & history

TLE from 1 day ago
0 STARLINK-31823
1 59794U 24093N   25128.31989150 -.00000155  00000-0  38900-5 0  9993
2 59794  43.0072 133.4131 0001953 293.9805  66.0842 15.27580037 55994
Epoch: 2025-05-08T07:40Z
Definitive object data (Epoch: 2025-05-08T07:40:38.625Z)
Latitude
-0.00004°
Longitude
151.86004°
Altitude
482.282 km
Speed
7.626 km/s
True Right ascension
08h 53m 39s
True Declination
0° 00' 00"
Sunlit
Object was in daylight at TLE epoch
Visualization TLE readout
Latitude
26.21804°
Longitude
-65.86451°
Altitude
484.334 km
Speed
7.627 km/s
Apparent Right ascension
20h 52m 37s
Apparent Declination
-31° 20' 28"
Sunlit
Object is in full shadow
Visualization observer readout
Local Sidereal Time
17:33:00
Azimuth
139.013° SSE
Elevation
5.058°
Doppler factor
1
Orbital elements
Apogee altitude
486.333 km
Perigee altitude
483.653 km
Semi-major axis
6,863.13 km
Eccentricity
0.0001953
Inclination
43.0072°
RAAN
133.4131°
Arg. of periapsis
293.9805°
True anomaly
66.10466°
Mean anomaly
66.0842°
Eccentric anomaly
66.09443°
Mean motion
3.81733 °/min
BSTAR
0.00000389
Orbital period
94.31 mins
Loading maneuver chart data...
Loading SW <> Apogee altitude chart data...
Loading historical data...
Loading historical data...
Loading historical data...
Loading historical data...
Loading historical data...
Loading historical data...
Loading historical data...

STARLINK-31823 Visibility forecast

Observer location: undefined°, undefined°

Span
Click to sort rows by Start time (UTC) header in descending order
Start Az.
Max El. time (UTC)
Max El. Az.
Max El.
End time (UTC)
End Az.
4 mins2025-05-10 02:13:41.405Z180.78° SSW2025-05-10 02:15:41.405Z146.569° SSE16.1°2025-05-10 02:17:41.405Z109.968° ESE
6 mins2025-05-10 03:51:41.405Z240.782° WSW2025-05-10 03:54:41.405Z116.482° SE42.819°2025-05-10 03:57:41.405Z74.376° E
5 mins2025-05-10 05:31:41.405Z290.085° WNW2025-05-10 05:33:41.405Z10.938° NNE38.19°2025-05-10 05:36:41.405Z72.069° E
5 mins2025-05-10 07:10:41.405Z294.959° NW2025-05-10 07:12:41.405Z16.547° NNE43.136°2025-05-10 07:15:41.405Z96.485° ESE
5 mins2025-05-10 08:49:41.405Z260.619° W2025-05-10 08:51:41.405Z202.349° SSW29.694°2025-05-10 08:54:41.405Z144.934° SSE
|